Date String (YYYY-MM-DD hh:mm:ss) UTC,Instrument flags,Ambient pressure (hPa),Sample flow (lpm),Bypass flow (lpm),Sample temperature (°C),Ambient temperature (°C),ASC tube jacket temperature (°C),LED temperature (°C),Box temperature (°C),Sample RH (%),Span deviation,Mass concentration (μg/m³),Mass concentration (μg/m³),Mass concentration (μg/m³)
DateTimeUTC,F1_M11,P_M11,Q1_M11,Q2_M11,T1_M11,T2_M11,T3_M11,T4_M11,T5_M11,U1_M11,ZSPAN_M11,X0_M11,X2_M11,X1_M11
2022-10-26 12:00:00,,0824.1,5.00,0.00,22.2,20.8,00.0,31.0,24.2,14.9,0000.0,0009.14,0002.17,0001.41
2022-10-26 12:01:00,,0824.1,5.00,0.00,22.2,20.8,00.0,31.0,24.2,14.8,0000.0,0009.19,0002.20,0001.42
2022-10-26 12:02:00,,0824.1,5.00,0.00,22.2,20.8,00.0,31.0,24.2,14.8,0000.0,0009.07,0002.24,0001.43
2022-10-26 12:03:00,,0824.1,5.00,0.00,22.2,20.8,00.0,31.0,24.2,14.8,0000.0,0008.93,0002.25,0001.43
2022-10-26 12:04:00,,0824.1,5.00,0.00,22.2,20.8,00.0,31.1,24.1,14.7,0000.0,0008.85,0002.25,0001.43
2022-10-26 12:05:00,,0824.1,5.00,0.00,22.2,20.7,00.0,31.1,24.1,14.7,0000.0,0008.67,0002.24,0001.43
2022-10-26 12:06:00,,0824.1,5.00,0.00,22.2,20.7,00.0,31.0,24.1,14.7,0000.0,0007.74,0002.21,0001.42
2022-10-26 12:07:00,,0824.0,4.98,0.00,22.2,20.7,00.0,31.0,24.1,14.7,0000.0,0006.75,0002.28,0001.41
2022-10-26 12:08:00,,0824.1,5.02,0.00,22.2,20.7,00.0,31.0,24.1,14.7,0000.0,0005.62,0002.29,0001.41
2022-10-26 12:09:00,,0824.0,5.00,0.00,22.2,20.7,00.0,31.0,24.0,14.7,0000.0,0004.68,0002.25,0001.41
2022-10-26 12:10:00,,0824.0,4.99,0.00,22.2,20.7,00.0,31.1,24.1,14.8,0000.0,0004.83,0002.21,0001.40
2022-10-26 12:11:00,,0824.0,5.00,0.00,22.2,20.7,00.0,31.0,24.0,14.8,0000.0,0005.47,0002.22,0001.41
2022-10-26 12:12:00,,0824.0,5.00,0.00,22.2,20.7,00.0,31.0,24.0,14.9,0000.0,0005.51,0002.27,0001.41
2022-10-26 12:13:00,,0824.0,5.00,0.00,22.2,20.7,00.0,31.0,24.1,14.8,0000.0,0005.63,0002.33,0001.41
2022-10-26 12:14:00,,0824.0,5.01,0.00,22.2,20.7,00.0,31.0,24.1,14.8,0000.0,0007.30,0002.32,0001.41
2022-10-26 12:15:00,,0824.0,4.98,0.00,22.2,20.7,00.0,31.0,24.1,14.8,0000.0,0007.71,0002.32,0001.40
2022-10-26 12:16:00,,0824.0,5.00,0.00,22.2,20.7,00.0,31.0,24.1,14.9,0000.0,0007.94,0002.38,0001.41
2022-10-26 12:17:00,,0824.0,5.00,0.00,22.2,20.7,00.0,31.0,24.1,14.8,0000.0,0007.97,0002.41,0001.42
2022-10-26 12:18:00,,0824.0,5.00,0.00,22.2,20.7,00.0,31.0,24.1,14.8,0000.0,0007.91,0002.38,0001.43
2022-10-26 12:19:00,,0824.0,5.02,0.00,22.2,20.7,00.0,31.0,24.1,14.8,0000.0,0007.81,0002.35,0001.43
2022-10-26 12:20:00,,0824.0,5.00,0.00,22.2,20.7,00.0,31.0,24.1,14.8,0000.0,0008.35,0002.35,0001.42
2022-10-26 12:21:00,,0824.0,5.00,0.00,22.2,20.7,00.0,31.0,24.1,14.8,0000.0,0008.39,0002.35,0001.43
2022-10-26 12:22:00,,0823.9,4.98,0.00,22.2,20.7,00.0,31.0,24.0,14.7,0000.0,0008.83,0002.29,0001.44
2022-10-26 12:23:00,,0823.8,5.00,0.00,22.2,20.7,00.0,31.0,24.0,14.7,0000.0,0008.91,0002.25,0001.43
2022-10-26 12:24:00,,0823.8,5.00,0.00,22.2,20.7,00.0,31.0,24.0,14.8,0000.0,0009.34,0002.17,0001.41
2022-10-26 12:25:00,,0823.8,5.02,0.00,22.2,20.7,00.0,31.0,24.0,14.7,0000.0,0008.58,0002.12,0001.40
2022-10-26 12:26:00,,0823.7,4.98,0.00,22.2,20.7,00.0,31.0,24.1,14.7,0000.0,0008.22,0002.15,0001.40
2022-10-26 12:27:00,,0823.8,5.03,0.00,22.2,20.7,00.0,31.0,24.1,14.7,0000.0,0008.20,0002.12,0001.39
2022-10-26 12:28:00,,0823.7,4.97,0.00,22.2,20.7,00.0,31.0,24.1,14.7,0000.0,0008.45,0002.18,0001.39
2022-10-26 12:29:00,,0823.7,5.02,0.00,22.2,20.7,00.0,31.0,24.0,14.7,0000.0,0008.55,0002.22,0001.37
2022-10-26 12:30:00,,0823.7,4.99,0.00,22.2,20.7,00.0,31.0,24.1,14.8,0000.0,0008.63,0002.24,0001.37
2022-10-26 12:31:00,,0823.7,5.01,0.00,22.2,20.7,00.0,31.0,24.1,14.7,0000.0,0008.23,0002.29,0001.37
2022-10-26 12:32:00,,0823.7,5.00,0.00,22.2,20.7,00.0,31.0,24.0,14.8,0000.0,0008.48,0002.32,0001.36
2022-10-26 12:33:00,,0823.7,4.99,0.00,22.2,20.7,00.0,31.0,24.0,14.7,0000.0,0007.84,0002.37,0001.35
2022-10-26 12:34:00,,0823.7,4.99,0.00,22.2,20.7,00.0,31.0,24.1,14.8,0000.0,0007.83,0002.36,0001.35
2022-10-26 12:35:00,,0823.7,5.02,0.00,22.2,20.7,00.0,31.0,24.1,14.7,0000.0,0007.98,0002.38,0001.37
2022-10-26 12:36:00,,0823.7,5.00,0.00,22.2,20.7,00.0,31.0,24.0,14.7,0000.0,0007.92,0002.41,0001.37
2022-10-26 12:37:00,,0823.7,5.00,0.00,22.2,20.7,00.0,31.0,24.0,14.7,0000.0,0007.81,0002.39,0001.37
2022-10-26 12:38:00,,0823.6,5.00,0.00,22.2,20.7,00.0,31.0,24.0,14.8,0000.0,0007.49,0002.36,0001.38
2022-10-26 12:39:00,,0823.7,5.00,0.00,22.2,20.7,00.0,31.0,24.0,14.8,0000.0,0007.30,0002.33,0001.38
2022-10-26 12:40:00,,0823.7,5.00,0.00,22.2,20.7,00.0,31.0,24.0,14.8,0000.0,0007.10,0002.28,0001.39
2022-10-26 12:41:00,,0823.6,4.98,0.00,22.2,20.7,00.0,31.0,24.0,14.9,0000.0,0007.31,0002.26,0001.40
2022-10-26 12:42:00,,0823.7,5.00,0.00,22.2,20.7,00.0,31.0,24.0,14.8,0000.0,0007.66,0002.21,0001.41
2022-10-26 12:43:00,,0823.7,5.00,0.00,22.2,20.7,00.0,31.0,24.0,14.8,0000.0,0007.29,0002.18,0001.42
2022-10-26 12:44:00,,0823.7,5.02,0.00,22.2,20.7,00.0,31.0,24.1,14.9,0000.0,0006.90,0002.14,0001.42
2022-10-26 12:45:00,,0823.7,5.00,0.00,22.2,20.7,00.0,31.0,24.1,14.9,0000.0,0006.47,0002.12,0001.43
2022-10-26 12:46:00,,0823.7,5.00,0.00,22.2,20.7,00.0,31.0,24.1,14.9,0000.0,0005.48,0002.11,0001.41
2022-10-26 12:47:00,,0823.6,5.00,0.00,22.2,20.7,00.0,31.0,24.1,14.8,0000.0,0005.40,0002.11,0001.42
2022-10-26 12:48:00,,0823.6,5.00,0.00,22.2,20.7,00.0,31.0,24.1,14.8,0000.0,0005.48,0002.16,0001.42
2022-10-26 12:49:00,,0823.6,5.00,0.00,22.2,20.7,00.0,31.0,24.1,14.8,0000.0,0005.46,0002.15,0001.41
2022-10-26 12:50:00,,0823.7,5.00,0.00,22.2,20.7,00.0,31.0,24.0,14.8,0000.0,0005.38,0002.14,0001.41
2022-10-26 12:51:00,,0823.6,5.00,0.00,22.2,20.7,00.0,31.0,24.0,14.8,0000.0,0005.45,0002.18,0001.42
2022-10-26 12:52:00,,0823.6,5.00,0.00,22.2,20.7,00.0,31.0,24.0,14.8,0000.0,0005.39,0002.18,0001.42
2022-10-26 12:53:00,,0823.5,5.00,0.00,22.2,20.7,00.0,31.0,24.1,14.8,0000.0,0005.52,0002.23,0001.42
2022-10-26 12:54:00,,0823.4,5.00,0.00,22.2,20.7,00.0,31.0,24.1,14.8,0000.0,0006.81,0002.33,0001.42
2022-10-26 12:55:00,,0823.4,4.98,0.00,22.2,20.7,00.0,31.0,24.1,14.8,0000.0,0007.29,0002.39,0001.42
2022-10-26 12:56:00,,0823.4,5.00,0.00,22.2,20.7,00.0,31.0,24.1,14.8,0000.0,0007.69,0002.42,0001.43
2022-10-26 12:57:00,,0823.4,5.01,0.00,22.2,20.7,00.0,31.0,24.0,14.9,0000.0,0007.63,0002.48,0001.44
2022-10-26 12:58:00,,0823.4,5.01,0.00,22.2,20.7,00.0,31.0,24.1,14.9,0000.0,0007.57,0002.46,0001.44
2022-10-26 12:59:00,,0823.4,5.00,0.00,22.2,20.7,00.0,31.0,24.1,14.9,0000.0,0007.52,0002.40,0001.44
